N6OIL Weather Reports


Display with metric or nautical units.
time (UTC)temp
F
wind
direction
speed
MPH
gust
MPH
rain 1hr
in
rain 24hr
in
rain mn
in
humidity
%
barometer
mb
20260509031204 71 330 7.0 11.0 0.00 0.00 0.00 41 1015.1
20260509030704 72 313 7.0 12.0 0.00 0.00 0.00 41 1015.1
20260509030204 73 317 7.0 12.0 0.00 0.00 0.00 39 1015.0
20260509025704 74 325 6.0 10.0 0.00 0.00 0.00 38 1015.0
20260509025205 76 326 5.0 10.0 0.00 0.00 0.00 36 1015.0
20260509024704 76 358 4.0 9.0 0.00 0.00 0.00 36 1014.9
20260509024204 77 358 4.0 9.0 0.00 0.00 0.00 35 1014.7
20260509023204 77 358 4.0 12.0 0.00 0.00 0.00 34 1014.6
20260509022704 77 358 5.0 12.0 0.00 0.00 0.00 34 1014.5
20260509022204 78 358 5.0 12.0 0.00 0.00 0.00 35 1014.5
20260509021704 78 63 5.0 10.0 0.00 0.00 0.00 35 1014.4
20260509021204 78 67 5.0 10.0 0.00 0.00 0.00 35 1014.3
20260509020204 79 74 6.0 14.0 0.00 0.00 0.00 35 1014.4
20260509015704 80 45 6.0 14.0 0.00 0.00 0.00 35 1014.3
20260509015204 80 30 6.0 11.0 0.00 0.00 0.00 34 1014.2
20260509014704 81 358 5.0 11.0 0.00 0.00 0.00 34 1014.2
20260509014204 81 49 5.0 11.0 0.00 0.00 0.00 32 1014.1
20260509013704 82 52 4.0 11.0 0.00 0.00 0.00 32 1014.1
20260509013204 83 76 4.0 10.0 0.00 0.00 0.00 30 1014.1
20260509012704 83 57 4.0 10.0 0.00 0.00 0.00 29 1014.0
20260509012204 84 76 4.0 10.0 0.00 0.00 0.00 29 1014.0
20260509011704 84 64 4.0 10.0 0.00 0.00 0.00 28 1014.0
20260509010204 84 51 5.0 16.0 0.00 0.00 0.00 29 1014.0
20260509005704 84 99 5.0 16.0 0.00 0.00 0.00 30 1013.9
20260509005204 83 165 5.0 16.0 0.00 0.00 0.00 31 1013.9
20260509004705 84 44 4.0 13.0 0.00 0.00 0.00 28 1014.0
20260509004204 83 46 5.0 13.0 0.00 0.00 0.00 30 1013.9
20260509003704 84 208 7.0 13.0 0.00 0.00 0.00 30 1013.9
20260509003204 84 344 9.0 13.0 0.00 0.00 0.00 30 1013.9
20260509002204 84 336 8.0 17.0 0.00 0.00 0.00 31 1013.8
20260509001704 83 306 10.0 22.0 0.00 0.00 0.00 31 1013.8
20260509001204 84 277 11.0 22.0 0.00 0.00 0.00 31 1013.8
20260509000704 83 316 12.0 22.0 0.00 0.00 0.00 31 1013.8
20260508235704 84 335 12.0 20.0 0.00 0.00 0.00 30 1013.8
20260508235204 84 267 13.0 21.0 0.00 0.00 0.00 30 1013.8
20260508234706 84 307 14.0 21.0 0.00 0.00 0.00 31 1013.8
20260508234204 83 327 14.0 21.0 0.00 0.00 0.00 31 1013.9
20260508233704 84 313 14.0 21.0 0.00 0.00 0.00 30 1013.9
20260508232704 84 313 14.0 22.0 0.00 0.00 0.00 29 1013.8
20260508231204 85 296 14.0 21.0 0.00 0.00 0.00 28 1014.0
20260508230204 86 311 13.0 18.0 0.00 0.00 0.00 26 1014.0
20260508225204 86 304 12.0 18.0 0.00 0.00 0.00 25 1014.1
20260508224704 87 317 12.0 18.0 0.00 0.00 0.00 24 1014.2
20260508224205 87 289 12.0 18.0 0.00 0.00 0.00 25 1014.2
20260508223705 87 311 12.0 18.0 0.00 0.00 0.00 23 1014.2
20260508223204 87 304 11.0 18.0 0.00 0.00 0.00 24 1014.3
20260508222704 87 316 12.0 18.0 0.00 0.00 0.00 24 1014.3
20260508221705 87 285 13.0 17.0 0.00 0.00 0.00 23 1014.4
20260508221204 87 313 12.0 17.0 0.00 0.00 0.00 23 1014.4
20260508220705 88 298 11.0 17.0 0.00 0.00 0.00 23 1014.4
20260508220204 88 284 9.0 15.0 0.00 0.00 0.00 21 1014.5
20260508215706 89 300 8.0 15.0 0.00 0.00 0.00 22 1014.5
20260508214704 89 313 3.0 7.0 0.00 0.00 0.00 17 1014.6
20260508214205 90 189 4.0 9.0 0.00 0.00 0.00 17 1014.7
20260508213706 89 158 4.0 13.0 0.00 0.00 0.00 16 1014.7
20260508213204 89 157 5.0 13.0 0.00 0.00 0.00 16 1014.7
20260508212704 89 124 5.0 13.0 0.00 0.00 0.00 16 1014.9
20260508212204 90 22 5.0 10.0 0.00 0.00 0.00 16 1015.0
20260508211704 89 91 4.0 10.0 0.00 0.00 0.00 16 1015.0
20260508211206 90 97 4.0 10.0 0.00 0.00 0.00 15 1015.1
20260508210704 89 86 4.0 10.0 0.00 0.00 0.00 16 1015.2
20260508210204 89 54 3.0 10.0 0.00 0.00 0.00 16 1015.2
20260508205704 89 139 4.0 10.0 0.00 0.00 0.00 17 1015.3
20260508205204 89 77 4.0 12.0 0.00 0.00 0.00 17 1015.4
20260508204704 89 91 4.0 12.0 0.00 0.00 0.00 17 1015.4
20260508204205 89 348 5.0 10.0 0.00 0.00 0.00 16 1015.5
20260508203204 88 65 4.0 10.0 0.00 0.00 0.00 16 1015.4
20260508202704 88 124 3.0 11.0 0.00 0.00 0.00 17 1015.5
20260508202204 87 44 5.0 11.0 0.00 0.00 0.00 17 1015.6
20260508201704 87 347 6.0 11.0 0.00 0.00 0.00 17 1015.7
20260508201204 87 87 4.0 10.0 0.00 0.00 0.00 16 1015.7
20260508200704 87 65 3.0 10.0 0.00 0.00 0.00 17 1015.9
20260508200204 86 73 4.0 10.0 0.00 0.00 0.00 17 1015.9
20260508195205 87 80 3.0 8.0 0.00 0.00 0.00 17 1016.0
20260508194204 85 209 5.0 10.0 0.00 0.00 0.00 18 1016.2
20260508193704 85 92 5.0 10.0 0.00 0.00 0.00 17 1016.2
20260508193205 86 100 5.0 10.0 0.00 0.00 0.00 17 1016.3
20260508192704 85 100 4.0 11.0 0.00 0.00 0.00 17 1016.3
20260508192204 85 111 6.0 11.0 0.00 0.00 0.00 17 1016.4
20260508191704 85 161 5.0 11.0 0.00 0.00 0.00 17 1016.4
20260508191204 85 103 4.0 10.0 0.00 0.00 0.00 17 1016.4
20260508190204 85 94 4.0 11.0 0.00 0.00 0.00 16 1016.5
20260508185204 83 82 5.0 10.0 0.00 0.00 0.00 17 1016.6
20260508184204 83 12 5.0 10.0 0.00 0.00 0.00 19 1016.7
20260508183204 83 65 5.0 11.0 0.00 0.00 0.00 18 1016.7
20260508182704 83 90 6.0 10.0 0.00 0.00 0.00 17 1016.8
20260508182205 82 83 5.0 11.0 0.00 0.00 0.00 19 1016.8
20260508181704 83 67 4.0 11.0 0.00 0.00 0.00 21 1016.8
20260508181204 83 75 5.0 13.0 0.00 0.00 0.00 20 1017.0
20260508180704 83 88 5.0 13.0 0.00 0.00 0.00 22 1017.0
20260508175703 82 99 5.0 13.0 0.00 0.00 0.00 21 1017.0
20260508175204 82 51 6.0 16.0 0.00 0.00 0.00 20 1017.0
20260508174706 82 79 8.0 16.0 0.00 0.00 0.00 21 1017.0
20260508174204 81 358 7.0 13.0 0.00 0.00 0.00 21 1017.0
20260508173704 81 84 5.0 12.0 0.00 0.00 0.00 21 1017.1
20260508173204 81 78 6.0 11.0 0.00 0.00 0.00 21 1017.0
20260508172704 81 66 5.0 12.0 0.00 0.00 0.00 21 1017.1
20260508172204 80 88 6.0 12.0 0.00 0.00 0.00 21 1017.0
20260508171704 80 58 7.0 12.0 0.00 0.00 0.00 21 1017.0
20260508171204 79 96 6.0 12.0 0.00 0.00 0.00 22 1017.1
20260508170704 79 65 5.0 12.0 0.00 0.00 0.00 22 1017.1
20260508170204 78 92 5.0 12.0 0.00 0.00 0.00 25 1017.1
20260508165704 79 51 4.0 12.0 0.00 0.00 0.00 24 1017.1
20260508165204 78 81 4.0 11.0 0.00 0.00 0.00 25 1017.1
20260508164705 78 43 5.0 11.0 0.00 0.00 0.00 26 1017.2
20260508164204 78 40 4.0 10.0 0.00 0.00 0.00 25 1017.2
20260508163204 78 76 5.0 12.0 0.00 0.00 0.00 25 1017.2
20260508162705 77 83 4.0 12.0 0.00 0.00 0.00 26 1017.2
20260508162204 77 71 4.0 12.0 0.00 0.00 0.00 27 1017.1
20260508161704 76 88 5.0 11.0 0.00 0.00 0.00 27 1017.1
20260508161204 76 64 5.0 11.0 0.00 0.00 0.00 28 1017.1
20260508160704 76 48 5.0 11.0 0.00 0.00 0.00 28 1017.1
20260508160204 76 9 4.0 9.0 0.00 0.00 0.00 28 1017.2
20260508155704 75 59 4.0 9.0 0.00 0.00 0.00 29 1017.2
20260508155205 75 51 4.0 11.0 0.00 0.00 0.00 30 1017.2
20260508154704 74 47 5.0 11.0 0.00 0.00 0.00 30 1017.2
20260508154204 74 51 4.0 9.0 0.00 0.00 0.00 29 1017.2
20260508153704 74 33 4.0 9.0 0.00 0.00 0.00 30 1017.2
20260508153204 74 51 4.0 9.0 0.00 0.00 0.00 30 1017.3
20260508152704 74 81 4.0 9.0 0.00 0.00 0.00 30 1017.4
20260508152204 73 49 4.0 9.0 0.00 0.00 0.00 30 1017.4
20260508151704 73 65 4.0 8.0 0.00 0.00 0.00 30 1017.3
20260508151204 73 58 4.0 8.0 0.00 0.00 0.00 30 1017.3
20260508150705 73 72 3.0 8.0 0.00 0.00 0.00 30 1017.3
20260508150204 73 91 3.0 8.0 0.00 0.00 0.00 30 1017.3
20260508145704 72 84 3.0 7.0 0.00 0.00 0.00 30 1017.3
20260508145204 72 81 3.0 7.0 0.00 0.00 0.00 30 1017.2
20260508144704 71 37 3.0 7.0 0.00 0.00 0.00 29 1017.2
20260508144204 71 86 3.0 6.0 0.00 0.00 0.00 29 1017.2
20260508143704 71 39 3.0 6.0 0.00 0.00 0.00 29 1017.2
20260508142204 69 358 4.0 9.0 0.00 0.00 0.00 31 1017.1
20260508141704 69 358 4.0 9.0 0.00 0.00 0.00 32 1017.1
20260508141204 68 358 4.0 9.0 0.00 0.00 0.00 32 1017.0
20260508140704 67 358 4.0 8.0 0.00 0.00 0.00 31 1017.0
20260508140204 66 358 4.0 8.0 0.00 0.00 0.00 30 1017.0
20260508135705 65 3 4.0 8.0 0.00 0.00 0.00 29 1016.8
20260508135204 65 3 4.0 8.0 0.00 0.00 0.00 30 1016.8
20260508134704 64 3 4.0 5.0 0.00 0.00 0.00 30 1016.7
20260508133706 62 3 4.0 5.0 0.00 0.00 0.00 32 1016.7
20260508133204 61 3 4.0 5.0 0.00 0.00 0.00 31 1016.6
20260508132705 61 3 3.0 5.0 0.00 0.00 0.00 32 1016.6
20260508132205 61 7 3.0 5.0 0.00 0.00 0.00 32 1016.6
20260508131206 61 7 3.0 5.0 0.00 0.00 0.00 32 1016.5
20260508130704 61 7 3.0 5.0 0.00 0.00 0.00 31 1016.4
20260508130204 61 7 3.0 5.0 0.00 0.00 0.00 31 1016.4
20260508125704 61 7 4.0 5.0 0.00 0.00 0.00 30 1016.4
20260508124704 61 7 4.0 5.0 0.00 0.00 0.00 30 1016.3
20260508124204 61 7 4.0 5.0 0.00 0.00 0.00 30 1016.3
20260508123704 61 7 4.0 5.0 0.00 0.00 0.00 29 1016.2
20260508122706 61 7 3.0 5.0 0.00 0.00 0.00 29 1016.1
20260508122204 62 7 4.0 5.0 0.00 0.00 0.00 29 1016.1
20260508121704 62 8 4.0 7.0 0.00 0.00 0.00 29 1016.1
20260508121204 62 7 4.0 7.0 0.00 0.00 0.00 28 1016.1
20260508120206 62 8 4.0 7.0 0.00 0.00 0.00 30 1016.1
20260508115704 61 3 4.0 6.0 0.00 0.00 0.00 29 1016.0
20260508115204 62 3 4.0 7.0 0.00 0.00 0.00 29 1016.0
20260508114704 62 3 4.0 8.0 0.00 0.00 0.00 28 1015.9
20260508114204 62 3 5.0 8.0 0.00 0.00 0.00 28 1016.0
20260508113705 62 3 5.0 8.0 0.00 0.00 0.00 28 1016.0
20260508113205 63 13 5.0 8.0 0.00 0.00 0.00 28 1016.0
20260508112704 62 15 5.0 8.0 0.00 0.00 0.00 28 1016.0
20260508111205 63 15 4.0 7.0 0.00 0.00 0.00 28 1016.1
20260508110705 64 17 4.0 5.0 0.00 0.00 0.00 29 1016.0
20260508110204 64 17 4.0 7.0 0.00 0.00 0.00 29 1016.1
20260508105204 65 19 4.0 9.0 0.00 0.00 0.00 28 1016.1
20260508104704 66 23 4.0 9.0 0.00 0.00 0.00 28 1016.1
20260508104204 66 31 4.0 10.0 0.00 0.00 0.00 29 1016.1
20260508103704 66 38 5.0 10.0 0.00 0.00 0.00 28 1016.1
20260508103204 66 30 5.0 9.0 0.00 0.00 0.00 29 1016.1
20260508102704 66 33 5.0 9.0 0.00 0.00 0.00 29 1016.2
20260508102204 66 36 5.0 9.0 0.00 0.00 0.00 29 1016.1
20260508101705 66 30 4.0 6.0 0.00 0.00 0.00 29 1016.2
20260508101204 65 33 4.0 6.0 0.00 0.00 0.00 29 1016.1
20260508100704 66 38 3.0 6.0 0.00 0.00 0.00 29 1016.1
20260508100205 66 34 3.0 6.0 0.00 0.00 0.00 29 1016.1
20260508095704 66 36 3.0 5.0 0.00 0.00 0.00 29 1016.1
20260508095204 66 43 4.0 6.0 0.00 0.00 0.00 29 1016.1
20260508094704 66 38 4.0 6.0 0.00 0.00 0.00 29 1016.1
20260508094204 66 36 3.0 6.0 0.00 0.00 0.00 29 1016.1
20260508093704 66 34 4.0 5.0 0.00 0.00 0.00 29 1016.2
20260508093204 66 47 4.0 7.0 0.00 0.00 0.00 30 1016.2
20260508092704 66 47 4.0 7.0 0.00 0.00 0.00 29 1016.2
20260508092204 66 45 4.0 7.0 0.00 0.00 0.00 30 1016.2
20260508091704 66 42 4.0 6.0 0.00 0.00 0.00 30 1016.2
20260508091205 66 54 4.0 8.0 0.00 0.00 0.00 30 1016.2
20260508090704 66 56 4.0 8.0 0.00 0.00 0.00 30 1016.2
20260508085705 67 35 5.0 10.0 0.00 0.00 0.00 29 1016.3
20260508085204 67 44 5.0 8.0 0.00 0.00 0.00 29 1016.3
20260508084704 67 57 4.0 8.0 0.00 0.00 0.00 29 1016.3
20260508084204 67 49 4.0 8.0 0.00 0.00 0.00 29 1016.4
20260508083704 67 49 4.0 8.0 0.00 0.00 0.00 29 1016.5
20260508083204 67 46 4.0 8.0 0.00 0.00 0.00 29 1016.5
20260508082704 67 49 4.0 7.0 0.00 0.00 0.00 29 1016.5
20260508082204 67 47 4.0 7.0 0.00 0.00 0.00 29 1016.5
20260508081704 67 46 4.0 6.0 0.00 0.00 0.00 29 1016.6
20260508081204 67 46 4.0 7.0 0.00 0.00 0.00 28 1016.6
20260508080705 68 44 4.0 7.0 0.00 0.00 0.00 28 1016.7
20260508075704 68 48 4.0 9.0 0.00 0.00 0.00 29 1016.7
20260508075204 68 49 5.0 9.0 0.00 0.00 0.00 29 1016.7
20260508074704 68 37 5.0 9.0 0.00 0.00 0.00 29 1016.7
20260508073704 68 27 4.0 9.0 0.00 0.00 0.00 30 1016.8
20260508072704 69 35 5.0 9.0 0.00 0.00 0.00 30 1016.7
20260508071704 69 48 4.0 8.0 0.00 0.00 0.00 31 1016.7
20260508071204 69 46 5.0 9.0 0.00 0.00 0.00 31 1016.8
20260508070704 69 47 5.0 9.0 0.00 0.00 0.00 30 1016.8
20260508070205 69 56 5.0 9.0 0.00 0.00 0.00 30 1016.8
20260508065704 69 49 5.0 9.0 0.00 0.00 0.00 30 1016.8
20260508065204 69 46 5.0 9.0 0.00 0.00 0.00 30 1016.8
20260508064704 69 34 5.0 10.0 0.00 0.00 0.00 29 1017.0
20260508064204 69 55 5.0 10.0 0.00 0.00 0.00 30 1016.8
20260508063705 69 44 4.0 7.0 0.00 0.00 0.00 31 1016.8
20260508063206 69 48 3.0 9.0 0.00 0.00 0.00 31 1016.8
20260508062704 69 49 4.0 9.0 0.00 0.00 0.00 31 1016.8
20260508062204 69 46 4.0 7.0 0.00 0.00 0.00 30 1016.8
20260508061705 69 44 4.0 6.0 0.00 0.00 0.00 31 1016.8
20260508061204 69 44 4.0 6.0 0.00 0.00 0.00 31 1016.7
20260508060705 69 46 4.0 6.0 0.00 0.00 0.00 31 1016.7
20260508055705 69 42 4.0 7.0 0.00 0.00 0.00 31 1016.8
20260508055206 69 51 4.0 7.0 0.00 0.00 0.00 30 1016.8
20260508054704 70 38 4.0 9.0 0.00 0.00 0.00 30 1016.7
20260508054204 70 71 5.0 9.0 0.00 0.00 0.00 31 1016.8
20260508053704 70 42 5.0 11.0 0.00 0.00 0.00 31 1016.8
20260508052705 70 44 6.0 13.0 0.00 0.00 0.00 32 1016.8
20260508052204 71 30 6.0 13.0 0.00 0.00 0.00 32 1016.8
20260508051704 71 41 6.0 13.0 0.00 0.00 0.00 32 1016.8
20260508050204 71 50 6.0 11.0 0.00 0.00 0.00 32 1016.7
20260508045704 71 51 5.0 11.0 0.00 0.00 0.00 33 1016.8
20260508045205 71 47 5.0 11.0 0.00 0.00 0.00 33 1016.8
20260508044704 71 53 5.0 11.0 0.00 0.00 0.00 33 1016.8
20260508044204 71 37 5.0 10.0 0.00 0.00 0.00 33 1016.8
20260508043704 72 57 6.0 11.0 0.00 0.00 0.00 33 1016.7
20260508043204 72 59 5.0 11.0 0.00 0.00 0.00 32 1016.7
20260508042204 72 47 4.0 10.0 0.00 0.00 0.00 33 1016.6
20260508041703 72 48 4.0 9.0 0.00 0.00 0.00 33 1016.5
20260508041204 72 61 4.0 6.0 0.00 0.00 0.00 32 1016.4
20260508040704 72 51 3.0 6.0 0.00 0.00 0.00 32 1016.5
20260508040206 73 48 3.0 7.0 0.00 0.00 0.00 32 1016.4
20260508035704 73 44 3.0 11.0 0.00 0.00 0.00 32 1016.4
20260508034704 74 53 6.0 11.0 0.00 0.00 0.00 31 1016.2
20260508034205 74 79 5.0 11.0 0.00 0.00 0.00 30 1016.2
20260508033704 74 63 5.0 13.0 0.00 0.00 0.00 30 1016.1
20260508033204 75 48 6.0 13.0 0.00 0.00 0.00 30 1016.1
20260508031704 76 358 5.0 12.0 0.00 0.00 0.00 29 1015.9